Tracking 31023 objects as of 19-Jul-2025
HD Live streaming from Space Station
objects crossing your sky now

STARLINK-2533

Track STARLINK-2533 now!
10-day predictions
STARLINK-2533 is classified as:


NORAD ID: 48294
Int'l Code: 2021-036U
Perigee: 553.3 km
Apogee: 555.4 km
Inclination: 53.1 °
Period: 95.6 minutes
Semi major axis: 6925 km
RCS: Unknown
Launch date: April 29, 2021
Source: United States (US)
Launch site: AIR FORCE EASTERN TEST RANGE (AFETR)
Your satellite tracking list
Your tracking list is empty




NASA's NSSDC Master Catalog

Two Line Element Set (TLE):
1 48294U 21036U   25199.88415546 -.00000075  00000-0  13855-4 0  9995
2 48294  53.0560  51.2087 0001518  97.6466 262.4695 15.06408522233076
Source of the keplerian elements: AFSPC